Regional Weather Roundup
Issued by NWS

Home | Current Version | Previous Version | Text Only | Print | Product List | Glossary On
Versions: 1 2 3 4 5 6 7 8 9 10 11 12 13 14 15 16 17 18 19 20 21 22 23 24 25 26 27 28 29 30 31 32 33 34 35 36 37 38 39 40 41 42 43 44 45 46 47 48 49 50
000
ASUS43 KDTX 190110
RWRMI
MICHIGAN HOURLY REGIONAL WEATHER ROUNDUP
NATIONAL WEATHER SERVICE DETROIT/PONTIAC MI
ISSUED BY NATIONAL WEATHER SERVICE GRAND RAPIDS MI
800 PM EST TUE DEC 18 2018

NOTE: "FAIR" INDICATES FEW OR NO CLOUDS BELOW 12,000 FEET WITH NO
SIGNIFICANT WEATHER AND/OR OBSTRUCTION TO VISIBILITY.

MIZ047>049-052>055-059>063-066>070-074>076-081>083-190200-
SOUTHEAST LOWER MICHIGAN

CITY           SKY/WX    TMP DP  RH WIND       PRES   REMARKS
ADRIAN         FAIR      28  23  81 SW6       30.14F WCI  22
ALMA           FAIR      30  26  83 S7        30.09F WCI  23
ANN ARBOR      FAIR      28  24  85 S3        30.13S
BAD AXE        FAIR      26  23  87 SE3       30.10F
DETROIT CITY   FAIR      30  23  75 S8        30.15S WCI  22
DETROIT        FAIR      28  23  81 S6        30.15S WCI  22
FLINT          FAIR      30  24  78 S7        30.12S WCI  23
GROSSE ILE     FAIR      32  29  86 S9        30.14F WCI  24
HILLSDALE      FAIR      30  25  80 S6        30.10F WCI  24
HOWELL         FAIR      31  25  78 S6        30.10F WCI  25

CITY           SKY/WX    TMP DP  RH WIND       PRES   REMARKS
JACKSON        FAIR      30  24  78 S8        30.11S WCI  22
LANSING        FAIR      31  24  75 S8        30.11S WCI  23
MASON          FAIR      32  26  80 S3        30.11S
MONROE         FAIR      29  28  96 E6        30.14F WCI  23
MT. CLEMENS    PTCLDY    29  26  89 S8        30.12F WCI  21
PONTIAC        FAIR      30  24  78 S6        30.10F WCI  24
PORT HOPE        N/A     29  24  82 S5        30.09F WCI  24
PORT HURON     FAIR      28  23  80 S5        30.14S WCI  23
TRI CITIES     FAIR      30  24  78 S6        30.10F WCI  24
YPSILANTI      FAIR      31  25  78 S6        30.14F WCI  25
$$
MIZ043>046-050>051-056>058-064>065-071>073-077>080-190200-
SOUTHWEST LOWER MICHIGAN

CITY           SKY/WX    TMP DP  RH WIND       PRES   REMARKS
BATTLE CREEK   FAIR      31  24  75 S8        30.11F WCI  23
BENTON HARBOR  FAIR      34  24  67 S6        30.10F WCI  29
BIG RAPIDS     FAIR      31  23  72 S3        30.04F
COLDWATER      FAIR      31  26  81 S6        30.12F WCI  26
HOLLAND        FAIR      33  23  66 S6        30.08F WCI  28
GRAND RAPIDS   FAIR      32  24  72 S7        30.09S WCI  26
KALAMAZOO      FAIR      31  24  75 S7        30.11F WCI  24
MARSHALL       FAIR      32  27  81 S6        30.11S WCI  26
MOUNT PLEASANT FAIR      30  24  78 CALM      30.07F
MUSKEGON       FAIR      34  26  72 S7        30.06F WCI  28
STURGIS        FAIR      32  25  77 S6        30.11F WCI  26
$$
MIZ016>042-190200-
NORTHERN LOWER MICHIGAN

CITY           SKY/WX    TMP DP  RH WIND       PRES   REMARKS
ALPENA         FAIR      28  20  71 S14       30.01F WCI  17
BEAVER ISLAND  FAIR      35  26  69 SW12G20   29.92F WCI  26
BELLAIRE       FAIR      34  21  57 S8        29.96F WCI  27
CADILLAC       FAIR      30  20  67 S9        29.99F WCI  21
CHARLEVOIX     FAIR      34  22  61 S14G21    29.96F WCI  25
GAYLORD        FAIR      28  21  75 S15G24    29.94F WCI  16
HOUGHTON LAKE  FAIR      27  22  81 S7        30.03F WCI  19
MANISTEE       FAIR      33  26  75 SE5       30.00F WCI  29
OSCODA         FAIR      28  23  83 SW9       30.06F WCI  19
PELLSTON       FAIR      27  18  69 SE5       29.94F WCI  22
TRAVERSE CITY  MOCLDY    35  22  58 S9        29.94F WCI  28
LUDINGTON      FAIR      34  30  85 S7        30.01F WCI  28
$$
MIZ007>008-015-190200-
EASTERN UPPER MICHIGAN

CITY           SKY/WX    TMP DP  RH WIND       PRES   REMARKS
KINROSS        FAIR      23  18  81 CALM      29.94S
MACKINAC ISLAN FAIR      31  21  66 S7        29.94R WCI  24
NEWBERRY       CLOUDY    32  28  85 S9        29.89F WCI  25
S. S. MARIE    FAIR      27  22  81 E6        29.94F WCI  20
$$
MIZ004>006-011>014-085-190200-
CENTRAL UPPER MICHIGAN

CITY           SKY/WX    TMP DP  RH WIND       PRES   REMARKS
ESCANABA       FAIR      35  31  85 SW13      29.89F WCI  26
MENOMINEE      FAIR      36  28  73 SW8       29.91S WCI  30
SAWYER-GWINN   CLEAR     32  23  69 S14       29.82S WCI  22
$$
MIZ001>003-009>011-084-190200-
WESTERN UPPER MICHIGAN

CITY           SKY/WX    TMP DP  RH WIND       PRES   REMARKS
IRON MOUNTAIN  FAIR      32  23  69 S3        29.83F
HOUGHTON       FAIR      29  17  61 SW6       29.77S WCI  23
COPPER HARBOR    N/A     29  23  78 W3        29.78F
IRONWOOD       FAIR      36  26  67 SW7       29.80F WCI  30
$$

ABBREVIATIONS USED IN REMARKS
   TC - TEMPERATURE IN CELSIUS
  WCI - WIND CHILL INDEX
   HX - HEAT INDEX
  VSB - VISIBILITY




USA.gov is the U.S. government's official web portal to all federal, state and local government web resources and services.